Location: Grisols
(45.0093°N, 3.1167°E)
Time: 20:53:44
(UTC+00:00)

Cosmos 2151 - Pass Details

Date: 21 October 2019
Orbit: 582 x 600 km, 82.5° (Epoch: 16 November)

Event Time Altitude Azimuth Distance (km) Brightness Sun altitude
Rises 19:16:13 0° 351° (N) 2,860 6.7 -25.9°
Reaches altitude 10° 19:18:26 10° 351° (N) 1,953 5.8 -26.3°
Enters shadow 19:20:44 31° 351° (N) 1,064 4.4 -26.7°
